UR5WGN-5 Lvivska UA current weather conditions

sailwx.info

Wind from 135

Air temperature 31.1° C
Dewpoint 17.4° C

Last reported at 2018-Aug-20 16:07 UTC.
Time now 2018-Aug-21 01:57 UTC

Location: N 49°30' E 023°12'.
View on Google Maps.

See reports from other nearby stations

  
Tides and Currents Weather Stations Pressure Air Temp Water Temp Dewpoint Dewpoint Depression Visibility Wind Speed Wind Dir Waves Ship Positions
date/time (UTC)wind fromknots sea level pressurealtimeterstation pressurevisibilityair tempwater tempwave heightnotes
2018-Aug-20 16:07 135 31.1
2018-Aug-20 16:02 135 31.1
2018-Aug-20 15:57 135 31.1
2018-Aug-20 15:52 135 31.7
2018-Aug-20 15:47 135 31.7
2018-Aug-20 15:42 135 31.7
2018-Aug-20 15:37 135 31.7
2018-Aug-20 15:32 112 31.7
2018-Aug-20 15:27 135 31.7
2018-Aug-20 15:22 135 31.7
2018-Aug-20 15:17 135 31.7
2018-Aug-20 15:12 067 31.1
2018-Aug-20 15:07 067 31.1
2018-Aug-20 15:02 067 30.6
2018-Aug-20 14:57 067 30.6
2018-Aug-20 14:52 090 30.0
2018-Aug-20 14:47 112 30.0
2018-Aug-20 14:42 112 29.4
2018-Aug-20 14:37 045 29.4
2018-Aug-20 14:32 045 29.4
2018-Aug-20 14:27 045 29.4
2018-Aug-20 14:22 022 30.0
2018-Aug-20 14:17 067 30.6
2018-Aug-20 14:12 135 30.0
2018-Aug-20 14:07 135 30.0
2018-Aug-20 14:02 135 30.0
2018-Aug-20 13:57 135 30.0
2018-Aug-20 13:52 112 30.0
2018-Aug-20 13:47 112 29.4
2018-Aug-20 13:42 067 29.4
2018-Aug-20 13:37 067 29.4
2018-Aug-20 13:32 067 29.4
2018-Aug-20 13:27 045 30.0
2018-Aug-20 13:22 067 30.0
2018-Aug-20 13:04 135 30.6
2018-Aug-20 12:59 135 30.0
2018-Aug-20 12:54 247 30.0
2018-Aug-20 11:31 180 28.9
2018-Aug-20 11:26 180 28.9
2018-Aug-20 11:21 135 28.9
2018-Aug-20 11:16 135 28.9
2018-Aug-20 11:11 067 28.3
2018-Aug-20 11:06 135 28.3
2018-Aug-20 11:01 28.3
2018-Aug-20 10:56 180 28.3
2018-Aug-20 10:51 157 28.3
2018-Aug-20 10:46 112 27.8
2018-Aug-20 10:41 112 27.8
2018-Aug-20 10:36 112 27.8
2018-Aug-20 10:31 135 27.8
2018-Aug-20 10:26 112 27.8
2018-Aug-20 10:21 135 27.8
2018-Aug-20 10:16 112 27.8
2018-Aug-20 10:11 135 27.8
2018-Aug-20 10:06 067 27.2
2018-Aug-20 10:01 067 27.2
2018-Aug-20 09:56 135 27.2
2018-Aug-20 09:51 157 27.2
2018-Aug-20 09:46 135 3 gusting 6 27.2
2018-Aug-20 09:41 135 4 gusting 6 27.2
2018-Aug-20 09:36 135 27.2
2018-Aug-20 09:31 180 26.7
2018-Aug-20 09:26 067 26.7
2018-Aug-20 09:21 157 26.7
2018-Aug-20 09:16 135 26.7
2018-Aug-20 09:11 135 26.1
2018-Aug-20 09:06 135 26.1
2018-Aug-20 09:01 135 26.1
2018-Aug-20 08:56 135 26.1
2018-Aug-20 08:51 112 26.1
2018-Aug-20 08:46 135 26.1
2018-Aug-20 08:41 090 25.6
2018-Aug-20 08:36 135 25.6
2018-Aug-20 08:31 135 25.6
2018-Aug-20 08:26 112 25.6
2018-Aug-20 08:21 180 25.0
2018-Aug-20 08:16 112 25.0
2018-Aug-20 08:11 135 25.0
2018-Aug-20 08:06 112 25.0
2018-Aug-20 08:01 135 24.4
2018-Aug-20 07:56 112 24.4
2018-Aug-20 07:51 112 23.9
2018-Aug-20 07:46 157 23.9
2018-Aug-20 07:41 067 23.9
2018-Aug-20 07:36 067 23.3
2018-Aug-20 07:31 112 23.3
2018-Aug-20 07:26 112 22.8
2018-Aug-20 07:21 090 22.8
2018-Aug-20 07:16 247 22.8
2018-Aug-20 07:11 247 22.2
2018-Aug-20 07:06 247 21.7
2018-Aug-20 07:01 247 21.7
2018-Aug-20 06:56 247 21.1
2018-Aug-20 06:51 247 20.6
2018-Aug-20 06:46 247 20.6
2018-Aug-20 06:41 247 20.0
2018-Aug-20 06:36 247 20.0
2018-Aug-20 06:31 247 20.0
2018-Aug-20 06:26 247 19.4
2018-Aug-20 06:21 247 19.4
2018-Aug-20 06:16 247 18.9
2018-Aug-20 06:11 247 18.9
2018-Aug-20 06:06 225 18.3
2018-Aug-20 06:01 225 18.3
2018-Aug-20 05:56 225 17.8
2018-Aug-20 05:51 247 17.8
2018-Aug-20 05:46 247 17.8
2018-Aug-20 05:41 247 17.2
2018-Aug-20 05:36 247 17.2
2018-Aug-20 05:31 247 16.7
2018-Aug-20 05:26 247 16.7
2018-Aug-20 05:21 247 16.7
2018-Aug-20 05:16 247 16.1
2018-Aug-20 05:11 247 16.1
2018-Aug-20 05:06 247 16.1
2018-Aug-20 05:01 202 15.6
2018-Aug-20 04:56 225 15.6
2018-Aug-20 04:51 247 15.6
2018-Aug-20 04:46 247 15.0
2018-Aug-20 04:41 247 15.0
2018-Aug-20 04:36 247 15.0
2018-Aug-20 04:31 247 14.4
2018-Aug-20 04:26 247 14.4
2018-Aug-20 04:21 247 14.4
2018-Aug-20 04:16 247 14.4
2018-Aug-20 04:11 247 14.4
2018-Aug-20 04:06 247 14.4
2018-Aug-20 04:01 247 14.4
2018-Aug-20 03:56 247 14.4
2018-Aug-20 03:51 247 13.9
2018-Aug-20 03:46 247 13.9
2018-Aug-20 03:41 247 13.9
2018-Aug-20 03:36 247 13.9
2018-Aug-20 03:30 247 13.9
2018-Aug-20 03:25 225 14.4
2018-Aug-20 03:20 225 14.4
2018-Aug-20 03:15 225 14.4
2018-Aug-20 03:10 225 14.4
2018-Aug-20 03:05 225 14.4
2018-Aug-20 03:00 225 14.4
2018-Aug-20 02:55 247 14.4
2018-Aug-20 02:50 247 14.4
2018-Aug-20 02:45 247 14.4
2018-Aug-20 02:40 247 14.4
2018-Aug-20 02:35 247 14.4
2018-Aug-20 02:30 247 14.4
2018-Aug-20 02:25 247 14.4
2018-Aug-20 02:20 247 14.4
2018-Aug-20 02:15 225 14.4
2018-Aug-20 02:10 247 14.4
2018-Aug-20 02:05 225 14.4